Stations météo

Publicité
Ouessant, France (7100): Température de l'air & dewpoint: 25.10.2020 23:00:00 - 31.10.2020 23:00:00 (CET)Ouessant, France (7100): Vitesse du vent & gusts: 25.10.2020 23:00:00 - 31.10.2020 23:00:00 (CET)Ouessant, France (7100): Direction du vent: 25.10.2020 23:00:00 - 31.10.2020 23:00:00 (CET)Ouessant, France (7100): reduced air pressure: 25.10.2020 23:00:00 - 31.10.2020 23:00:00 (CET)Ouessant, France (7100): visibility: 25.10.2020 23:00:00 - 31.10.2020 23:00:00 (CET)Ouessant, France (7100): Quantités de précipitations: 25.10.2020 23:00:00 - 31.10.2020 23:00:00 (CET)
Date & Time tt [°C] td [°C] ff [km/h] ff [knt] fx [km/h] fx [knt] dd ppp [hPa] vv [km] rr [mm]
31.10.2020 23:00:00 12,3 10,2 39 21 56 30 S 1012,6 - 0,0
31.10.2020 22:00:00 12,1 9,3 39 21 49 27 SSW 1013,3 4,0 0,0
31.10.2020 21:00:00 12,1 8,8 32 17 41 22 SSW 1014,1 - 0,0
31.10.2020 20:00:00 12,0 8,1 23 13 - - SSW 1014,1 - 0,0
31.10.2020 19:00:00 11,8 7,3 25 13 36 20 SW 1014,2 8 0,0
31.10.2020 18:00:00 11,7 6,4 21 11 30 16 WSW 1014,2 - 0,0
31.10.2020 17:00:00 12,1 7,2 23 12 43 23 WSW 1014,7 - 0,0
31.10.2020 16:00:00 13,3 7,7 29 16 46 25 W 1014,4 8 0,0
31.10.2020 15:00:00 13,3 8,6 29 16 49 26 W 1014,0 - 0,0
31.10.2020 14:00:00 13,3 8,4 36 19 55 30 W 1013,5 - 0,0
31.10.2020 13:00:00 13,4 9,3 36 19 58 32 W 1012,8 - 0,0
31.10.2020 12:00:00 12,5 10,4 41 22 68 37 W 1012,1 - 0,0
31.10.2020 11:00:00 12,7 12,1 37 20 64 35 W 1010,2 - 1,0
31.10.2020 10:00:00 14,3 14,1 55 30 108 58 SW 1009,0 2,0 3,6
31.10.2020 09:00:00 14,7 14,4 64 35 93 50 S 1007,7 - 1,2
31.10.2020 08:00:00 14,6 14,1 63 34 96 52 S 1008,3 - 0,2
31.10.2020 07:00:00 14,3 13,3 61 33 101 55 S 1009,2 5 0,2
31.10.2020 06:00:00 14,6 12,6 61 33 90 48 S 1010,3 - 0,0
31.10.2020 05:00:00 14,3 13,0 56 31 81 44 S 1011,5 - 0,0
31.10.2020 04:00:00 14,0 13,2 53 29 78 42 S 1013,0 5 0,0
31.10.2020 03:00:00 13,9 13,6 51 28 72 39 S 1014,6 - 0,0
31.10.2020 02:00:00 13,8 13,6 48 26 72 39 S 1015,3 - 0,0
31.10.2020 01:00:00 13,7 13,5 51 28 73 39 S 1015,8 - 0,0
31.10.2020 00:00:00 13,7 13,5 50 27 68 37 S 1016,9 - 0,0
30.10.2020 23:00:00 13,5 13,5 48 26 66 36 S 1017,3 - 0,0
30.10.2020 22:00:00 13,6 13,6 45 24 68 37 S 1018,2 5 0,0
30.10.2020 21:00:00 13,6 13,6 40 22 56 30 S 1018,6 - 0,2
30.10.2020 20:00:00 13,7 13,5 39 21 60 32 S 1019,1 - 0,0
30.10.2020 19:00:00 14,0 13,5 39 21 55 30 S 1019,3 6 0,0
30.10.2020 18:00:00 14,0 13,7 40 22 53 28 S 1019,0 - 0,0
30.10.2020 17:00:00 13,9 13,7 37 20 58 31 S 1019,1 - 0,0
30.10.2020 16:00:00 13,9 13,6 42 23 59 32 S 1019,4 8 0,0
30.10.2020 15:00:00 13,9 13,4 37 20 59 32 SSW 1019,6 - 0,2
30.10.2020 14:00:00 14,4 13,1 44 24 60 32 SSW 1019,7 - 0,0
30.10.2020 13:00:00 14,5 13,0 38 20 57 31 SSW 1020,0 8 0,0
30.10.2020 12:00:00 14,4 13,1 44 24 64 34 SSW 1020,0 - 0,0
30.10.2020 11:00:00 14,5 13,5 44 24 63 34 SSW 1019,6 - 0,0
30.10.2020 10:00:00 14,2 13,2 41 22 59 32 SSW 1019,6 8 0,0
30.10.2020 09:00:00 13,9 13,3 40 22 61 33 SSW 1019,2 - 0,0
30.10.2020 08:00:00 13,9 13,3 40 21 58 31 SSW 1018,8 - 0,0
30.10.2020 07:00:00 13,9 13,3 40 22 56 30 SSW 1018,6 18 0,0
30.10.2020 06:00:00 13,9 12,8 41 22 58 32 SSW 1018,4 - 0,0
30.10.2020 05:00:00 14,0 12,6 38 21 64 35 SSW 1018,1 - 0,0
30.10.2020 04:00:00 13,8 12,4 40 21 54 29 SSW 1018,4 15 0,0
30.10.2020 03:00:00 13,8 12,7 38 21 59 32 SSW 1018,7 - 0,0
30.10.2020 02:00:00 13,7 12,8 40 22 61 33 SSW 1018,6 - 0,0
30.10.2020 01:00:00 13,8 12,9 41 22 61 33 SSW 1018,6 - 0,0
30.10.2020 00:00:00 13,6 13,0 41 22 56 31 SSW 1018,5 - 0,0
29.10.2020 23:00:00 13,8 13,2 41 22 65 35 SSW 1018,3 - 0,0
29.10.2020 22:00:00 13,9 13,3 39 21 59 32 SSW 1018,1 15 0,0
29.10.2020 21:00:00 14,1 13,3 39 21 66 36 SSW 1018,0 - 0,2
29.10.2020 20:00:00 14,2 13,1 42 23 55 30 SSW 1017,9 - 0,0
29.10.2020 19:00:00 14,1 12,8 37 20 55 30 SSW 1017,8 8 0,0
29.10.2020 18:00:00 14,2 12,9 40 21 58 32 SSW 1017,6 - 0,0
29.10.2020 17:00:00 14,4 12,6 38 21 63 34 SW 1017,4 - 0,0
29.10.2020 16:00:00 15,3 13,0 37 20 61 33 SW 1017,4 8 0,0
29.10.2020 15:00:00 15,7 13,2 40 22 62 33 SW 1017,5 - 0,0
29.10.2020 14:00:00 15,1 13,1 43 23 67 36 SSW 1017,7 - 0,0
29.10.2020 13:00:00 14,8 13,2 38 21 62 34 SW 1017,8 8 0,0
29.10.2020 12:00:00 15,4 13,4 39 21 61 33 SW 1017,8 - 0,0
29.10.2020 11:00:00 14,6 13,3 37 20 54 29 SW 1017,7 - 0,0
29.10.2020 10:00:00 13,9 13,1 37 20 53 29 SW 1017,6 5 0,0
29.10.2020 09:00:00 13,4 12,6 35 19 50 27 SW 1017,0 - 0,0
29.10.2020 08:00:00 13,4 12,6 34 18 48 26 SW 1016,7 - 0,0
29.10.2020 07:00:00 13,3 12,4 33 18 48 26 SW 1016,4 18 0,0
29.10.2020 06:00:00 13,3 12,4 32 17 47 26 SW 1016,1 - 0,0
29.10.2020 05:00:00 13,1 12,0 29 16 44 24 SW 1016,1 - 0,0
29.10.2020 04:00:00 12,9 11,8 27 14 37 20 SW 1016,3 - 0,0
29.10.2020 03:00:00 12,5 11,4 24 13 - - WSW 1016,3 - 0,0
29.10.2020 02:00:00 11,8 10,5 31 17 47 26 W 1016,0 - 0,0
29.10.2020 01:00:00 12,1 10,8 28 15 53 28 WSW 1016,0 6 0,0
29.10.2020 00:00:00 12,6 11,0 31 17 42 23 WSW 1015,5 - 0,0
28.10.2020 23:00:00 12,2 10,8 30 16 48 26 WSW 1015,0 - 0,2
28.10.2020 22:00:00 12,5 10,9 28 15 48 26 WSW 1014,4 6 0,0
28.10.2020 21:00:00 12,3 10,0 40 22 56 30 W 1013,5 - 0,0
28.10.2020 20:00:00 12,6 10,0 37 20 66 36 W 1012,8 - 0,0
28.10.2020 19:00:00 12,7 9,9 40 21 63 34 WSW 1011,6 18 0,0
28.10.2020 18:00:00 12,9 10,4 36 20 59 32 WSW 1010,9 - 0,0
28.10.2020 17:00:00 12,9 9,7 41 22 64 35 WSW 1010,2 - 0,0
28.10.2020 16:00:00 13,5 9,9 38 20 63 34 WSW 1009,6 - 0,0
28.10.2020 15:00:00 13,6 9,6 45 24 62 34 WSW 1008,9 - 0,0
28.10.2020 14:00:00 13,8 10,4 39 21 67 36 WSW 1008,7 - 0,0
28.10.2020 13:00:00 13,7 10,3 39 21 67 36 WSW 1008,6 6 0,0
28.10.2020 12:00:00 13,6 10,9 40 22 59 32 SW 1008,3 - 0,0
28.10.2020 11:00:00 12,7 9,9 39 21 61 33 SW 1007,8 - 0,0
28.10.2020 10:00:00 13,0 10,0 38 20 66 36 SW 1007,4 6 0,0
28.10.2020 09:00:00 12,4 9,9 39 21 69 37 SW 1007,0 - 0,2
28.10.2020 08:00:00 12,8 10,3 34 19 56 31 SW 1006,5 - 0,0
28.10.2020 07:00:00 12,2 9,8 33 18 58 32 WSW 1006,2 20 0,0
28.10.2020 06:00:00 12,4 9,4 37 20 58 31 WSW 1006,1 - 0,0
28.10.2020 05:00:00 11,9 9,1 38 20 63 34 WSW 1005,8 - 0,0
28.10.2020 04:00:00 11,6 8,4 41 22 64 35 WSW 1005,5 20 0,0
28.10.2020 03:00:00 11,0 9,3 33 18 59 32 WSW 1005,9 - 0,2
28.10.2020 02:00:00 11,4 8,6 38 21 - - SW 1005,6 - 0,0
28.10.2020 01:00:00 12,1 8,9 39 21 63 34 WSW 1005,7 - 0,0
28.10.2020 00:00:00 12,1 9,1 40 21 65 35 WSW 1005,5 - 0,2
27.10.2020 23:00:00 10,4 8,7 40 22 74 40 W 1005,4 - 2,3
27.10.2020 22:00:00 11,9 8,9 35 19 50 27 WSW 1005,0 25 0,0
27.10.2020 21:00:00 11,1 8,7 30 16 41 22 WSW 1004,4 - 0,0
27.10.2020 20:00:00 11,0 9,6 27 15 37 20 WSW 1003,9 - 0,2
27.10.2020 19:00:00 11,3 10,0 23 13 38 21 WSW 1003,3 8 0,8
27.10.2020 18:00:00 11,5 9,9 22 12 46 25 W 1002,4 - 0,4
27.10.2020 17:00:00 12,6 10,3 28 15 44 24 W 1001,8 - 0,0
27.10.2020 16:00:00 14,2 11,9 30 16 46 25 WSW 1001,3 15 0,0
27.10.2020 15:00:00 14,6 12,6 29 16 54 29 WSW 1000,8 - 0,0
27.10.2020 14:00:00 13,9 12,6 - - 51 28 - 1000,5 - 0,0
27.10.2020 13:00:00 14,0 13,5 34 18 50 27 W 1000,0 18 0,0
27.10.2020 12:00:00 13,9 13,9 34 19 - - W 999,4 - 0,0
27.10.2020 11:00:00 14,4 14,4 45 24 64 35 WSW 998,6 - 0,0
27.10.2020 10:00:00 14,2 14,2 45 24 64 34 SW 998,5 0,9 0,8
27.10.2020 09:00:00 13,8 13,8 43 23 64 35 SW 998,9 - 0,2
27.10.2020 08:00:00 13,0 13,0 41 22 64 35 SSW 999,1 - 1,1
27.10.2020 07:00:00 12,4 12,2 46 25 63 34 S 999,9 10 1,4
27.10.2020 06:00:00 12,1 11,8 42 23 60 32 SSW 1001,5 - 0,6
27.10.2020 05:00:00 11,6 11,0 39 21 58 31 SSW 1002,7 - 1,0
27.10.2020 04:00:00 11,3 10,4 38 20 51 28 SSW 1004,0 12 1,2
27.10.2020 03:00:00 11,4 10,3 29 15 43 23 SW 1005,4 - 0,6
27.10.2020 02:00:00 11,3 9,6 29 15 53 29 WSW 1006,2 - 0,6
27.10.2020 01:00:00 11,2 9,5 26 14 38 21 WSW 1006,8 - 0,0
27.10.2020 00:00:00 9,9 8,5 24 13 52 28 WSW 1007,5 - 0,0
26.10.2020 23:00:00 10,3 8,4 27 14 41 22 W 1008,1 - 0,0
26.10.2020 22:00:00 10,3 9,1 27 15 51 28 W 1008,3 15 0,4
26.10.2020 21:00:00 11,0 8,6 33 18 44 24 W 1007,9 - 0,2
26.10.2020 20:00:00 11,5 8,0 29 16 44 24 WNW 1007,7 - 0,0
26.10.2020 19:00:00 11,4 7,1 32 17 51 28 WNW 1007,8 18 0,0
26.10.2020 18:00:00 11,6 8,3 33 18 53 29 WNW 1007,2 - 0,0
26.10.2020 17:00:00 12,4 8,7 35 19 53 29 WNW 1007,0 - 0,0
26.10.2020 16:00:00 12,5 8,2 41 22 60 32 WNW 1006,7 18 0,0
26.10.2020 15:00:00 12,8 8,7 43 23 61 33 WNW 1006,2 - 0,0
26.10.2020 14:00:00 13,1 9,0 42 23 62 33 WNW 1006,2 - 0,0
26.10.2020 13:00:00 12,8 8,9 45 25 68 37 WNW 1006,3 15 0,0
26.10.2020 12:00:00 13,2 9,6 42 23 62 33 WNW 1006,3 - 0,0
26.10.2020 11:00:00 13,0 8,9 45 24 64 35 WNW 1005,7 - 0,0
26.10.2020 10:00:00 12,2 8,7 46 25 62 33 WNW 1005,2 10 0,0
26.10.2020 09:00:00 10,7 8,3 48 26 66 36 W 1004,9 - 0,0
26.10.2020 08:00:00 11,2 7,3 51 28 70 38 WNW 1003,9 - 0,0
26.10.2020 07:00:00 10,6 8,2 37 20 64 34 W 1003,4 - 0,4
26.10.2020 06:00:00 11,0 6,9 47 26 72 39 WNW 1002,8 - 0,0
26.10.2020 05:00:00 11,0 8,2 48 26 68 37 W 1002,5 - 0,0
26.10.2020 04:00:00 11,0 7,3 49 27 66 36 W 1002,2 18 0,0
26.10.2020 03:00:00 11,5 7,8 44 24 64 34 W 1002,2 - 0,0
26.10.2020 02:00:00 9,9 7,1 29 15 59 32 W 1002,2 - 0,0
26.10.2020 01:00:00 10,8 7,8 43 23 58 31 W 1001,9 18 0,0
26.10.2020 00:00:00 10,7 7,0 43 23 55 30 W 1001,9 - 0,0
25.10.2020 23:00:00 10,0 6,2 38 21 50 27 W 1001,6 - 0,0

tt = Température de l'air
td = dewpoint
ff = Vitesse du vent
fx = gusts
dd = Direction du vent
ppp = reduced air pressure
vv = visibility
rr = Quantités de précipitations

stations d'obs. à proximité